Location: Bottom School (historical)
(37.9078°N, 89.3593°W)
Time: 12:49:05
(UTC+00:00)

NOAA 15 - Visible Passes

Search period start: 27 March 2023 00:00
Search period end: 06 April 2023 00:00
Orbit: 797 x 811 km, 98.6° (Epoch: 27 March)

Date Brightness Start Highest point End Pass type
(mag) Time Alt. Az. Time Alt. Az. Time Alt. Az.
27 Mar 7.0 02:01:37 10° SW 02:05:36 21° W 02:09:35 10° NW visible
28 Mar 6.1 01:35:09 10° SSW 01:40:01 37° W 01:44:55 10° NNW visible
29 Mar 5.1 01:09:17 10° S 01:14:32 65° WSW 01:19:49 10° NNW visible
30 Mar 4.6 00:43:52 10° SSE 00:49:09 73° ENE 00:54:27 10° N visible
30 Mar 7.5 02:27:17 10° WSW 02:29:23 12° W 02:31:30 10° WNW visible
31 Mar 7.0 01:59:39 10° SW 02:03:43 22° W 02:07:48 10° NW visible
01 Apr 6.1 01:33:14 10° SSW 01:38:09 38° W 01:43:05 10° NNW visible
02 Apr 5.0 01:07:24 10° S 01:12:40 68° WSW 01:17:57 10° NNW visible
03 Apr 4.6 00:42:01 10° SSE 00:47:16 70° ENE 00:52:33 10° N visible
03 Apr 7.5 02:25:10 10° WSW 02:27:29 13° W 02:29:49 10° WNW visible
04 Apr 6.9 01:57:42 10° SSW 02:01:50 23° W 02:05:59 10° NW visible
05 Apr 6.0 01:31:18 10° SSW 01:36:16 40° W 01:41:14 10° NNW visible
